Home > Weather > Niš > Past weeks

Flag for Serbia Weather for the Past 2 Weeks in Niš, Serbia

Now
52 °F

Light rain. Cloudy.


Feels Like: 48 °F
Forecast: 47 / 61 °F
Wind: 12 mph from Northwest

Location: Nis Airport

Current Time: May 4, 2016 at 10:38:53 AM

Latest Report: May 4, 2016 at 10:00 AM


Visibility: N/A

Pressure: 29.86 "Hg

Humidity: 88%

Dew Point: 48 °F

Location of NišLocation

Historic Weather in Niš — Graph

°F

Niš Temperature Yesterday

Maximum temperature yesterday: 54 °F (at 12:30 AM)
Minimum temperature yesterday: 48 °F (at 5:30 AM)
Average temperature yesterday: 50 °F

High & Low Weather Summary for the Past Weeks

 TemperatureHumidityPressure
High75 °F (Apr 19, 2:30 PM)100% (Apr 20, 3:00 AM)30.39 "Hg (Apr 20, 3:00 AM)
Low32 °F (Apr 21, 6:30 AM)24% (Apr 21, 4:00 PM)29.50 "Hg (Apr 24, 10:30 AM)
Average53 °F73%29.92 "Hg
* Reported Apr 19 9:00 AM — May 4 9:00 AM, Niš, Weather by CustomWeather, © 2016

Note: Actual official high and low records may vary slightly from our data, if they occured in-between our weather recording intervals... More about our weather records

Advertising

Niš Weather History for the Previous 24 Hours

Scroll right to see more
 ConditionsComfort  
Time TempWeatherWind HumidityBarometerVisibility
9:00 AM
Wed, May 4
50 °FBroken clouds.9 mph94%29.83 "HgN/A
8:30 AM48 °FPartly sunny.10 mph94%29.83 "HgN/A
8:00 AM48 °FBroken clouds.10 mph94%29.83 "HgN/A
7:30 AM48 °FLight rain. Partly sunny.10 mph94%29.83 "HgN/A
7:00 AM48 °FLight rain. Partly sunny.10 mph94%29.83 "HgN/A
6:30 AM48 °FLight rain. Partly sunny.5 mph94%29.83 "HgN/A
6:00 AM48 °FLight rain. Passing clouds.10 mph94%29.80 "HgN/A
5:30 AM48 °FPartly cloudy.9 mph94%29.80 "HgN/A
5:00 AM48 °FPartly cloudy.7 mph94%29.80 "HgN/A
4:30 AM48 °FLight rain. Partly cloudy.8 mph94%29.80 "HgN/A
4:00 AM48 °FLight rain. Partly cloudy.12 mph94%29.80 "HgN/A
3:30 AM48 °FPartly cloudy.12 mph94%29.80 "HgN/A
3:00 AM48 °FPassing clouds.9 mph94%29.80 "HgN/A
2:30 AM48 °FPassing clouds.12 mph94%29.80 "HgN/A
2:00 AM48 °FPassing clouds.10 mph94%29.80 "HgN/A
1:00 AM48 °FPassing clouds.7 mph94%29.80 "HgN/A
12:30 AM48 °FPassing clouds.6 mph94%29.80 "HgN/A
12:00 AM50 °FPassing clouds.7 mph88%29.80 "HgN/A
11:30 PM
Tue, May 3
50 °FLight rain. Passing clouds.2 mph82%29.80 "HgN/A
11:00 PM50 °FLight rain. Passing clouds.7 mph88%29.80 "HgN/A
10:00 PM50 °FLight rain. Passing clouds.8 mph88%29.80 "HgN/A
9:30 PM50 °FPassing clouds.7 mph88%29.80 "HgN/A
9:00 PM50 °FPassing clouds.10 mph88%29.80 "HgN/A
8:30 PM50 °FPartly sunny.14 mph88%29.77 "HgN/A
8:00 PM50 °FPartly sunny.13 mph88%29.77 "HgN/A
7:30 PM50 °FPartly sunny.13 mph88%29.77 "HgN/A
7:00 PM52 °FPartly sunny.15 mph88%29.74 "HgN/A
6:30 PM52 °FLight rain. Broken clouds.15 mph94%29.74 "HgN/A
6:00 PM52 °FLight rain. Partly sunny.14 mph94%29.74 "HgN/A
5:30 PM52 °FLight rain. Partly sunny.14 mph94%29.74 "HgN/A
5:00 PM52 °FLight rain. Partly sunny.15 mph94%29.74 "HgN/A
4:30 PM52 °FLight rain. Broken clouds.12 mph88%29.74 "HgN/A
4:00 PM52 °FLight rain. Broken clouds.13 mph88%29.74 "HgN/A
3:30 PM52 °FLight rain. Broken clouds.12 mph88%29.74 "HgN/A
3:00 PM52 °FLight rain. Broken clouds.13 mph94%29.74 "HgN/A
2:30 PM50 °FLight rain. Partly sunny.14 mph94%29.74 "HgN/A
1:30 PM50 °FRain. Mostly cloudy.10 mph100%29.74 "HgN/A
1:00 PM50 °FRain. Mostly cloudy.13 mph94%29.74 "HgN/A
12:30 PM50 °FRain. Mostly cloudy.14 mph94%29.74 "HgN/A
12:00 PM50 °FRain. Broken clouds.12 mph94%29.74 "HgN/A
11:00 AM52 °FLight rain. Cloudy.8 mph88%29.74 "HgN/A
10:00 AM50 °FLight rain. Mostly cloudy.9 mph94%29.71 "HgN/A
Weather by CustomWeather, © 2016

See weather overviewHow to use our weather pages